GW3577 Weather Reports


Display with metric or nautical units.
time (UTC)temp
F
wind
direction
speed
MPH
gust
MPH
rain 1hr
in
rain 24hr
in
rain mn
in
humidity
%
barometer
mb
20260503234308 58 227 2.0 3.0 0.00 0.00 0.00 37 1015.8
20260503233806 59 227 1.0 2.0 0.00 0.00 0.00 35 1015.8
20260503233301 59 227 2.0 3.0 0.00 0.00 0.00 35 1015.8
20260503232758 60 227 2.0 3.0 0.00 0.00 0.00 34 1015.8
20260503232255 61 227 2.0 3.0 0.00 0.00 0.00 33 1015.8
20260503231753 61 227 2.0 3.0 0.00 0.00 0.00 31 1015.4
20260503231250 61 227 1.0 3.0 0.00 0.00 0.00 31 1015.4
20260503230745 62 227 4.0 6.0 0.00 0.00 0.00 30 1015.4
20260503230243 62 234 5.0 7.0 0.00 0.00 0.00 30 1015.4
20260503225741 62 243 5.0 7.0 0.00 0.00 0.00 28 1015.4
20260503225241 63 242 6.0 9.0 0.00 0.00 0.00 27 1015.4
20260503224738 63 239 6.0 8.0 0.00 0.00 0.00 29 1015.4
20260503224236 63 227 4.0 6.0 0.00 0.00 0.00 30 1015.4
20260503223733 63 241 6.0 9.0 0.00 0.00 0.00 29 1015.4
20260503223231 64 210 5.0 8.0 0.00 0.00 0.00 26 1015.4
20260503222726 64 172 3.0 5.0 0.00 0.00 0.00 27 1015.4
20260503222225 64 231 3.0 6.0 0.00 0.00 0.00 28 1015.4
20260503221723 64 252 9.0 11.0 0.00 0.00 0.00 27 1015.4
20260503221221 64 224 4.0 6.0 0.00 0.00 0.00 28 1015.4
20260503220717 64 205 6.0 9.0 0.00 0.00 0.00 28 1015.4
20260503220214 64 234 4.0 9.0 0.00 0.00 0.00 28 1015.4
20260503215711 64 225 6.0 10.0 0.00 0.00 0.00 26 1015.4
20260503215208 65 217 8.0 11.0 0.00 0.00 0.00 28 1015.4
20260503214706 65 213 5.0 8.0 0.00 0.00 0.00 28 1015.4
20260503214201 65 242 7.0 10.0 0.00 0.00 0.00 28 1015.4
20260503213655 64 242 5.0 7.0 0.00 0.00 0.00 27 1015.4
20260503213152 64 208 7.0 10.0 0.00 0.00 0.00 27 1015.4
20260503212649 64 198 6.0 9.0 0.00 0.00 0.00 27 1015.4
20260503212146 65 222 7.0 9.0 0.00 0.00 0.00 28 1015.4
20260503211644 65 216 6.0 10.0 0.00 0.00 0.00 27 1015.4
20260503211139 65 266 5.0 9.0 0.00 0.00 0.00 27 1015.4
20260503210636 65 252 8.0 11.0 0.00 0.00 0.00 27 1015.4
20260503210133 65 243 5.0 7.0 0.00 0.00 0.00 28 1015.4
20260503205628 65 258 6.0 10.0 0.00 0.00 0.00 27 1015.4
20260503205125 65 248 5.0 9.0 0.00 0.00 0.00 27 1015.4
20260503204622 66 248 11.0 14.0 0.00 0.00 0.00 27 1015.8
20260503204119 66 293 7.0 10.0 0.00 0.00 0.00 27 1015.4
20260503203616 66 258 5.0 9.0 0.00 0.00 0.00 27 1015.8
20260503203113 66 261 6.0 11.0 0.00 0.00 0.00 27 1015.8
20260503202611 66 265 8.0 11.0 0.00 0.00 0.00 28 1015.8
20260503202109 66 225 8.0 13.0 0.00 0.00 0.00 27 1015.8
20260503201607 65 234 10.0 15.0 0.00 0.00 0.00 29 1015.8
20260503201104 64 158 4.0 6.0 0.00 0.00 0.00 28 1015.8
20260503200600 65 243 10.0 14.0 0.00 0.00 0.00 29 1015.8
20260503200056 64 214 4.0 8.0 0.00 0.00 0.00 28 1015.8
20260503195554 65 237 6.0 8.0 0.00 0.00 0.00 28 1016.1
20260503195050 65 217 4.0 6.0 0.00 0.00 0.00 29 1016.1
20260503194547 64 210 5.0 7.0 0.00 0.00 0.00 28 1016.1
20260503194047 64 208 4.0 8.0 0.00 0.00 0.00 28 1016.1
20260503193544 65 216 3.0 6.0 0.00 0.00 0.00 29 1016.1
20260503193044 66 239 6.0 10.0 0.00 0.00 0.00 30 1016.5
20260503192541 65 238 7.0 10.0 0.00 0.00 0.00 30 1016.1
20260503192037 65 203 4.0 9.0 0.00 0.00 0.00 28 1016.5
20260503191534 66 271 0.0 0.0 0.00 0.00 0.00 29 1016.5
20260503191031 65 266 5.0 6.0 0.00 0.00 0.00 28 1016.5
20260503190528 65 236 8.0 10.0 0.00 0.00 0.00 28 1016.5
20260503190025 66 239 2.0 6.0 0.00 0.00 0.00 25 1016.8
20260503185521 66 327 4.0 6.0 0.00 0.00 0.00 28 1016.8
20260503185020 66 303 3.0 7.0 0.00 0.00 0.00 29 1016.8
20260503184517 64 256 4.0 6.0 0.00 0.00 0.00 31 1016.8
20260503184013 63 214 6.0 11.0 0.00 0.00 0.00 31 1016.8
20260503183510 63 162 4.0 7.0 0.00 0.00 0.00 32 1017.2
20260503183007 62 180 2.0 5.0 0.00 0.00 0.00 30 1017.2
20260503182506 63 203 2.0 8.0 0.00 0.00 0.00 33 1017.2
20260503182003 62 233 10.0 12.0 0.00 0.00 0.00 32 1017.2
20260503181500 64 257 8.0 12.0 0.00 0.00 0.00 31 1017.2
20260503180956 64 244 9.0 19.0 0.00 0.00 0.00 30 1017.5
20260503180454 63 251 5.0 8.0 0.00 0.00 0.00 31 1017.5
20260503175950 62 230 9.0 13.0 0.00 0.00 0.00 30 1017.5
20260503175449 63 252 9.0 15.0 0.00 0.00 0.00 32 1017.5
20260503174944 62 284 7.0 14.0 0.00 0.00 0.00 32 1017.5
20260503174443 62 204 5.0 9.0 0.00 0.00 0.00 33 1017.5
20260503173938 60 203 1.0 2.0 0.00 0.00 0.00 29 1017.8
20260503173434 61 237 7.0 10.0 0.00 0.00 0.00 32 1017.8
20260503172931 62 235 8.0 11.0 0.00 0.00 0.00 30 1017.8
20260503172429 63 234 5.0 6.0 0.00 0.00 0.00 30 1017.8
20260503171925 61 244 3.0 7.0 0.00 0.00 0.00 33 1017.8
20260503171422 60 235 7.0 11.0 0.00 0.00 0.00 32 1017.8
20260503170919 61 239 7.0 9.0 0.00 0.00 0.00 32 1017.8
20260503170415 62 261 5.0 9.0 0.00 0.00 0.00 32 1018.2
20260503150808 57 264 6.0 8.0 0.00 0.00 0.00 36 1019.2
20260503150303 56 36 3.0 4.0 0.00 0.00 0.00 33 1019.5
20260503140228 54 275 3.0 5.0 0.00 0.00 0.00 40 1020.0
20260503131157 52 5 6.0 9.0 0.00 0.00 0.00 41 1020.0
20260503130654 51 285 5.0 9.0 0.00 0.00 0.00 39 1020.0
20260503130152 51 1 4.0 6.0 0.00 0.00 0.00 40 1020.0
20260503120117 48 325 4.0 6.0 0.00 0.00 0.00 49 1019.2
20260503110544 41 311 0.0 0.0 0.00 0.00 0.00 63 1018.5
20260503090431 41 352 0.0 0.0 0.00 0.00 0.00 61 1016.5
20260503081347 40 302 1.0 4.0 0.00 0.00 0.00 69 1015.8
20260503080844 39 309 1.0 3.0 0.00 0.00 0.00 73 1015.8
20260503080341 40 309 0.0 0.0 0.00 0.00 0.00 71 1015.8
20260503072817 40 248 0.0 0.0 0.00 0.00 0.00 71 1015.4
20260503072314 40 248 0.0 0.0 0.00 0.00 0.00 71 1015.4
20260503071810 40 248 0.0 0.0 0.00 0.00 0.00 70 1015.4
20260503071308 42 248 3.0 4.0 0.00 0.00 0.00 66 1015.4
20260503070803 42 318 2.0 6.0 0.00 0.00 0.00 60 1015.4
20260503070301 41 287 4.0 5.0 0.00 0.00 0.00 68 1015.4
20260503060232 39 331 4.0 4.0 0.00 0.00 0.00 77 1015.0
20260503054719 40 13 0.0 0.0 0.00 0.00 0.00 73 1015.0
20260503054216 41 13 0.0 0.0 0.00 0.00 0.00 69 1015.0
20260503053714 42 13 0.0 0.0 0.00 0.00 0.00 68 1015.0
20260503053213 42 13 0.0 2.0 0.00 0.00 0.00 70 1015.0
20260503052708 43 13 1.0 3.0 0.00 0.00 0.00 67 1015.0
20260503052205 42 13 0.0 0.0 0.00 0.00 0.00 65 1015.0
20260503051700 42 13 0.0 0.0 0.00 0.00 0.00 67 1015.0
20260503051159 43 13 0.0 0.0 0.00 0.00 0.00 65 1015.0
20260503050655 43 13 0.0 0.0 0.00 0.00 0.00 63 1014.7
20260503050151 44 13 0.0 0.0 0.00 0.00 0.00 61 1015.0
20260503045649 44 13 0.0 0.0 0.00 0.00 0.00 59 1015.0
20260503045146 44 13 0.0 0.0 0.00 0.00 0.00 61 1015.0
20260503044642 44 13 0.0 0.0 0.00 0.00 0.00 61 1015.0
20260503044140 46 13 0.0 0.0 0.00 0.00 0.00 57 1015.0
20260503043637 47 13 0.0 0.0 0.00 0.00 0.00 51 1015.0
20260503043134 48 13 0.0 0.0 0.00 0.00 0.00 48 1015.0
20260503042630 48 13 0.0 0.0 0.00 0.00 0.00 47 1015.0
20260503042126 49 13 0.0 0.0 0.00 0.00 0.00 46 1015.0
20260503041623 49 13 0.0 2.0 0.00 0.00 0.00 45 1015.0
20260503041121 49 13 0.0 3.0 0.00 0.00 0.00 46 1015.0
20260503040618 49 13 0.0 0.0 0.00 0.00 0.00 46 1015.0
20260503040115 49 13 0.0 0.0 0.00 0.00 0.00 45 1015.0
20260503035611 50 13 0.0 0.0 0.00 0.00 0.00 43 1015.0
20260503035109 50 13 0.0 0.0 0.00 0.00 0.00 42 1015.0
20260503034607 51 13 0.0 0.0 0.00 0.00 0.00 41 1015.0
20260503034104 50 25 4.0 7.0 0.00 0.00 0.00 43 1015.0
20260503033600 50 116 2.0 3.0 0.00 0.00 0.00 45 1015.0
20260503033058 50 116 0.0 0.0 0.00 0.00 0.00 42 1015.0
20260503032557 50 116 3.0 4.0 0.00 0.00 0.00 42 1015.0
20260503032054 51 133 0.0 0.0 0.00 0.00 0.00 40 1015.0
20260503031552 51 133 2.0 3.0 0.00 0.00 0.00 40 1014.7
20260503031049 52 294 7.0 10.0 0.00 0.00 0.00 39 1015.0
20260503030545 52 76 5.0 7.0 0.00 0.00 0.00 39 1014.7
20260503030042 52 342 0.0 0.0 0.00 0.00 0.00 38 1014.7
20260503025539 52 12 0.0 5.0 0.00 0.00 0.00 38 1014.7
20260503025037 52 327 8.0 17.0 0.00 0.00 0.00 38 1014.7
20260503024532 52 248 5.0 13.0 0.00 0.00 0.00 38 1014.7
20260503024030 52 313 7.0 12.0 0.00 0.00 0.00 37 1014.7
20260503023526 52 292 8.0 14.0 0.00 0.00 0.00 38 1014.3
20260503023024 53 321 6.0 9.0 0.00 0.00 0.00 37 1014.3
20260503022520 53 325 4.0 7.0 0.00 0.00 0.00 37 1014.3
20260503022015 53 287 7.0 12.0 0.00 0.00 0.00 37 1014.7
20260503021512 53 327 12.0 18.0 0.00 0.00 0.00 37 1014.3
20260503021009 53 307 8.0 12.0 0.00 0.00 0.00 38 1014.3
20260503020506 53 325 9.0 16.0 0.00 0.00 0.00 38 1014.3
20260503020002 53 319 8.0 12.0 0.00 0.00 0.00 38 1014.7
20260503015459 53 303 5.0 8.0 0.00 0.00 0.00 37 1014.3
20260503014955 53 358 4.0 11.0 0.00 0.00 0.00 37 1014.3
20260503014452 53 309 6.0 9.0 0.00 0.00 0.00 37 1014.3
20260503013951 53 290 6.0 11.0 0.00 0.00 0.00 36 1014.3
20260503013448 53 323 6.0 11.0 0.00 0.00 0.00 37 1014.3
20260503012944 53 273 2.0 6.0 0.00 0.00 0.00 38 1014.3
20260503012443 54 280 5.0 8.0 0.00 0.00 0.00 37 1014.3
20260503011938 54 273 4.0 15.0 0.00 0.00 0.00 38 1014.3
20260503011435 54 356 0.0 4.0 0.00 0.00 0.00 36 1014.3
20260503010933 54 267 5.0 7.0 0.00 0.00 0.00 38 1014.3
20260503010429 54 265 6.0 9.0 0.00 0.00 0.00 38 1014.3
20260503005926 54 274 4.0 5.0 0.00 0.00 0.00 38 1014.3
20260503005424 54 324 3.0 5.0 0.00 0.00 0.00 37 1014.3
20260503004920 54 309 2.0 5.0 0.00 0.00 0.00 39 1014.0
20260503004417 55 302 2.0 5.0 0.00 0.00 0.00 38 1014.0
20260503003915 55 325 2.0 6.0 0.00 0.00 0.00 37 1014.0
20260503003411 55 297 4.0 7.0 0.00 0.00 0.00 37 1014.0
20260503002909 55 323 3.0 5.0 0.00 0.00 0.00 37 1014.0
20260503002406 55 307 6.0 9.0 0.00 0.00 0.00 39 1013.7
20260503001902 55 296 2.0 5.0 0.00 0.00 0.00 37 1013.7
20260503001358 55 283 0.0 0.0 0.00 0.00 0.00 38 1013.7
20260503000856 55 294 7.0 10.0 0.00 0.00 0.00 38 1013.7
20260503000353 56 306 9.0 13.0 0.00 0.00 0.00 37 1013.7
20260502235850 56 297 9.0 12.0 0.00 0.00 0.00 38 1013.7
20260502235347 56 324 1.0 5.0 0.00 0.00 0.00 39 1013.3
20260502234844 56 293 7.0 8.0 0.00 0.00 0.00 37 1013.3